TimeMST,TemperatureF,Dew PointF,Humidity,Sea Level PressureIn,VisibilityMPH,Wind Direction,Wind SpeedMPH,Gust SpeedMPH,PrecipitationIn,Events,Conditions,WindDirDegrees,DateUTC
12:11 AM,12.2,10.4,92,29.95,5.0,SSE,12.7,-,0.00,Snow,Light Snow,150,2013-01-14 07:11:00
12:48 AM,12.2,10.4,92,29.94,1.8,SSE,9.2,-,0.00,Snow,Light Snow,160,2013-01-14 07:48:00
12:53 AM,12.9,10.9,92,30.03,1.8,SSE,9.2,-,0.00,Snow,Light Snow,160,2013-01-14 07:53:00
1:01 AM,12.2,10.4,92,29.94,1.5,South,8.1,-,0.00,Snow,Light Snow,170,2013-01-14 08:01:00
1:53 AM,12.9,10.9,92,30.04,1.5,South,11.5,-,0.00,Snow,Light Snow,170,2013-01-14 08:53:00
2:01 AM,12.2,10.4,92,29.95,1.5,South,10.4,-,0.00,Snow,Light Snow,170,2013-01-14 09:01:00
2:23 AM,12.2,10.4,92,29.95,1.5,South,9.2,-,0.00,Snow,Light Snow,170,2013-01-14 09:23:00
2:53 AM,12.0,10.0,92,30.06,1.5,South,13.8,-,0.00,Snow,Light Snow,170,2013-01-14 09:53:00
3:01 AM,12.2,10.4,92,29.96,1.2,South,13.8,-,0.00,Snow,Light Snow,170,2013-01-14 10:01:00
3:53 AM,12.0,10.0,92,30.06,1.5,South,11.5,-,0.00,Snow,Light Snow,170,2013-01-14 10:53:00
4:18 AM,12.2,10.4,92,29.94,0.8,South,11.5,-,0.00,Snow,Light Snow,170,2013-01-14 11:18:00
4:39 AM,12.2,10.4,92,29.94,1.0,SSE,12.7,-,0.00,Snow,Light Snow,160,2013-01-14 11:39:00
4:53 AM,12.0,9.0,88,30.06,1.5,SSE,13.8,-,0.00,Snow,Light Snow,160,2013-01-14 11:53:00
5:41 AM,10.4,8.6,92,29.95,1.8,South,11.5,-,0.00,Snow,Light Snow,170,2013-01-14 12:41:00
5:48 AM,10.4,8.6,92,29.95,2.5,South,9.2,-,0.00,Snow,Light Snow,170,2013-01-14 12:48:00
5:50 AM,10.4,8.6,92,29.95,3.0,South,9.2,-,0.00,Snow,Light Snow,170,2013-01-14 12:50:00
5:53 AM,10.9,9.0,92,30.10,3.0,South,9.2,-,0.00,Snow,Light Snow,180,2013-01-14 12:53:00
6:53 AM,10.9,9.0,92,30.11,2.0,SSE,9.2,-,0.00,Snow,Light Snow,160,2013-01-14 13:53:00
7:23 AM,10.4,8.6,92,29.97,1.2,SSE,6.9,-,0.00,Snow,Light Snow,160,2013-01-14 14:23:00
7:31 AM,10.4,8.6,92,29.97,0.8,SSE,6.9,-,0.00,Snow,Light Snow,160,2013-01-14 14:31:00
7:39 AM,10.4,8.6,92,29.97,0.5,SSE,6.9,-,0.00,Fog-Snow,Snow,160,2013-01-14 14:39:00
7:46 AM,10.4,8.6,92,29.98,0.8,SSE,6.9,-,0.00,Snow,Light Snow,160,2013-01-14 14:46:00
7:53 AM,10.9,9.0,92,30.13,0.8,South,5.8,-,0.00,Snow,Light Snow,170,2013-01-14 14:53:00
8:22 AM,10.4,8.6,92,29.98,1.0,SSE,8.1,-,0.00,Snow,Light Snow,160,2013-01-14 15:22:00
8:53 AM,12.0,9.0,88,30.14,1.0,SSE,9.2,-,0.00,Snow,Light Snow,160,2013-01-14 15:53:00
9:05 AM,10.4,8.6,92,29.98,0.8,SSE,10.4,-,0.00,Snow,Light Snow,160,2013-01-14 16:05:00
9:14 AM,12.2,8.6,85,29.98,0.8,SSE,10.4,-,0.00,Snow,Light Snow,160,2013-01-14 16:14:00
9:53 AM,12.0,9.0,88,30.14,0.5,SSE,11.5,-,0.00,Fog-Snow,Light Snow,160,2013-01-14 16:53:00
10:53 AM,12.0,8.1,84,30.13,0.5,SSE,12.7,-,0.00,Fog-Snow,Light Snow,150,2013-01-14 17:53:00
11:04 AM,12.2,8.6,85,29.96,0.8,SSE,10.4,-,0.00,Snow,Light Snow,160,2013-01-14 18:04:00
11:22 AM,12.2,8.6,85,29.94,1.5,SSE,11.5,-,0.00,Snow,Light Snow,150,2013-01-14 18:22:00
11:40 AM,12.2,8.6,85,29.93,1.5,SSE,11.5,-,0.00,Snow,Light Snow,160,2013-01-14 18:40:00
11:53 AM,12.0,9.0,88,30.09,1.0,SSE,12.7,-,0.00,Snow,Light Snow,160,2013-01-14 18:53:00
12:26 PM,12.2,8.6,85,29.91,0.8,SSE,12.7,-,0.00,Snow,Light Snow,160,2013-01-14 19:26:00
12:36 PM,12.2,8.6,85,29.90,0.5,SSE,12.7,-,0.00,Fog-Snow,Light Snow,150,2013-01-14 19:36:00
12:53 PM,12.0,9.0,88,30.04,0.5,SSE,11.5,-,0.00,Fog-Snow,Light Snow,160,2013-01-14 19:53:00
1:42 PM,12.2,8.6,85,29.89,1.0,SSE,10.4,-,0.00,Snow,Light Snow,150,2013-01-14 20:42:00
1:51 PM,12.2,8.6,85,29.89,2.5,SSE,11.5,-,0.00,Snow,Light Snow,150,2013-01-14 20:51:00
1:53 PM,12.0,8.1,84,30.04,2.5,SSE,10.4,-,0.00,Snow,Light Snow,160,2013-01-14 20:53:00
2:02 PM,12.2,8.6,85,29.89,1.8,SSE,11.5,-,0.00,Snow,Light Snow,160,2013-01-14 21:02:00
2:09 PM,12.2,10.4,92,29.89,2.0,SSE,10.4,-,0.00,Snow,Light Snow,160,2013-01-14 21:09:00
2:43 PM,12.2,8.6,85,29.90,1.2,South,13.8,-,0.00,Snow,Light Snow,170,2013-01-14 21:43:00
3:08 PM,12.2,8.6,85,29.91,1.5,SSE,15.0,-,0.00,Snow,Light Snow,160,2013-01-14 22:08:00
3:23 PM,12.2,8.6,85,29.91,1.0,SSE,16.1,-,0.00,Snow,Light Snow,160,2013-01-14 22:23:00
3:53 PM,10.9,8.1,88,30.08,1.5,SSE,13.8,-,0.00,Snow,Light Snow,160,2013-01-14 22:53:00
4:04 PM,10.4,8.6,92,29.92,2.5,SSE,12.7,-,0.00,Snow,Light Snow,160,2013-01-14 23:04:00
4:11 PM,10.4,6.8,85,29.93,8.0,SSE,12.7,-,0.00,,Mostly Cloudy,160,2013-01-14 23:11:00
4:25 PM,8.6,6.8,92,29.93,10.0,SSE,12.7,-,0.00,,Scattered Clouds,160,2013-01-14 23:25:00
4:35 PM,8.6,6.8,92,29.93,5.0,SSE,11.5,-,0.00,,Mostly Cloudy,160,2013-01-14 23:35:00
4:45 PM,6.8,3.2,85,29.94,9.0,South,11.5,-,0.00,,Scattered Clouds,170,2013-01-14 23:45:00
4:53 PM,6.1,3.9,91,30.13,10.0,South,12.7,-,0.00,,Scattered Clouds,170,2013-01-14 23:53:00
5:14 PM,1.4,-0.4,92,29.94,6.0,SSE,10.4,-,0.00,Snow,Light Snow,160,2013-01-15 00:14:00
5:19 PM,1.4,-0.4,92,29.95,3.0,South,9.2,-,0.00,Snow,Light Snow,170,2013-01-15 00:19:00
5:26 PM,-0.4,-0.4,100,29.95,2.5,SSE,9.2,-,0.00,Snow,Light Snow,160,2013-01-15 00:26:00
5:34 PM,1.4,-0.4,92,29.95,6.0,SSE,9.2,-,0.00,Snow,Light Snow,160,2013-01-15 00:34:00
5:53 PM,-0.0,-0.9,96,30.18,8.0,SSE,10.4,-,0.00,,Mostly Cloudy,160,2013-01-15 00:53:00
6:04 PM,-0.4,-2.2,92,29.96,9.0,SSE,9.2,-,N/A,,Scattered Clouds,150,2013-01-15 01:04:00
6:14 PM,-0.4,-2.2,92,29.96,1.8,SSE,8.1,-,N/A,,Partly Cloudy,160,2013-01-15 01:14:00
6:24 PM,1.4,-0.4,92,29.97,0.2,SSE,6.9,-,N/A,Fog,Light Freezing Fog,160,2013-01-15 01:24:00
6:37 PM,1.4,-0.4,92,29.97,0.2,SSE,4.6,-,N/A,Fog,Light Freezing Fog,160,2013-01-15 01:37:00
6:49 PM,1.4,-0.4,92,29.97,0.2,South,3.5,-,N/A,Fog,Light Freezing Fog,180,2013-01-15 01:49:00
6:53 PM,1.9,-0.0,91,30.19,0.2,Calm,Calm,-,N/A,Fog,Light Freezing Fog,0,2013-01-15 01:53:00
7:00 PM,3.2,1.4,92,29.97,0.5,SSW,3.5,-,N/A,Fog,Light Freezing Fog,200,2013-01-15 02:00:00
7:13 PM,6.8,6.8,100,29.97,1.2,SSW,3.5,-,N/A,,Overcast,200,2013-01-15 02:13:00
7:30 PM,8.6,6.8,92,29.97,2.5,South,3.5,-,0.00,Snow,Light Snow,190,2013-01-15 02:30:00
7:42 PM,8.6,6.8,92,29.98,3.0,South,3.5,-,0.00,Snow,Light Snow,170,2013-01-15 02:42:00
7:53 PM,9.0,8.1,96,30.16,1.8,South,4.6,-,0.00,Snow,Light Snow,190,2013-01-15 02:53:00
7:57 PM,10.4,8.6,92,29.98,1.8,South,3.5,-,0.00,Snow,Light Snow,190,2013-01-15 02:57:00
8:04 PM,10.4,8.6,92,29.98,3.0,SSW,4.6,-,0.00,Snow,Light Snow,200,2013-01-15 03:04:00
8:53 PM,9.0,6.1,88,30.15,9.0,South,5.8,-,0.00,,Overcast,180,2013-01-15 03:53:00
9:53 PM,10.0,8.1,92,30.14,7.0,SW,4.6,-,0.00,Snow,Light Snow,230,2013-01-15 04:53:00
10:53 PM,10.0,7.0,87,30.14,6.0,West,3.5,-,0.00,Snow,Light Snow,260,2013-01-15 05:53:00
11:53 PM,8.1,5.0,87,30.14,5.0,Calm,Calm,-,0.00,Snow,Light Snow,0,2013-01-15 06:53:00